This is the latest recevied weather packets stored in our database for station/object CE3MXM-12. If no packets are shown the sender has not sent any weather packets the latest 10 day(s).
| Time | Temp. | Humidity | Pressure | Rain* | Wind** | Luminosity | Snow |
|---|---|---|---|---|---|---|---|
| 1777802641 | 11.67° C | 42% | 1015.4 hPa | - | - | - | - |
| 1777802341 | 11.67° C | 41% | 1015.3 hPa | - | - | - | - |
| 1777802041 | 11.67° C | 41% | 1015.3 hPa | - | - | - | - |
| 1777801741 | 11.67° C | 41% | 1015.5 hPa | - | - | - | - |
| 1777801441 | 12.22° C | 40% | 1015.4 hPa | - | - | - | - |
| 1777801141 | 12.78° C | 40% | 1015.6 hPa | - | - | - | - |
| 1777800841 | 12.78° C | 39% | 1015.4 hPa | - | - | - | - |
| 1777800541 | 13.33° C | 37% | 1015.5 hPa | - | - | - | - |
| 1777800241 | 13.89° C | 37% | 1015.5 hPa | - | - | - | - |
| 1777799940 | 13.89° C | 37% | 1015.4 hPa | - | - | - | - |
| 1777799640 | 13.89° C | 37% | 1015.6 hPa | - | - | - | - |
| 1777799340 | 13.89° C | 36% | 1015.6 hPa | - | - | - | - |
| 1777799040 | 13.89° C | 37% | 1015.6 hPa | - | - | - | - |
| 1777798740 | 13.33° C | 37% | 1015.7 hPa | - | - | - | - |
| 1777798440 | 13.33° C | 38% | 1015.6 hPa | - | - | - | - |
| 1777798140 | 12.78° C | 39% | 1015.6 hPa | - | - | - | - |
| 1777797840 | 13.33° C | 39% | 1015.7 hPa | - | - | - | - |
| 1777797540 | 13.33° C | 38% | 1015.9 hPa | - | - | - | - |
| 1777797240 | 13.33° C | 38% | 1015.7 hPa | - | - | - | - |
| 1777796940 | 13.89° C | 38% | 1015.7 hPa | - | - | - | - |
| 1777796640 | 13.89° C | 37% | 1015.6 hPa | - | - | - | - |
| 1777796339 | 13.89° C | 37% | 1015.7 hPa | - | - | - | - |
| 1777796039 | 13.89° C | 37% | 1015.7 hPa | - | - | - | - |
| 1777795739 | 14.44° C | 36% | 1016 hPa | - | - | - | - |
| 1777795439 | 14.44° C | 36% | 1015.9 hPa | - | - | - | - |
* Rain since midnight (hover to see other rain measurements)
** Current wind speed in m/s (hover to see current wind gust speed)